Weather History for Lebanon, NH

Change the Weather History Date:

Sunday, December 16, 2012

  Actual Average Record
Temperature  
Mean Temperature 25 °F -  
Max Temperature 27 °F 33 °F 53 °F (1982)
Min Temperature 23 °F 17 °F -14 °F (1943)
Degree Days  
Heating Degree Days 40    
Moisture  
Dew Point 18 °F    
Average Humidity 75    
Maximum Humidity 86    
Minimum Humidity 56    
Precipitation  
Precipitation 0.09 in - - ()
Sea Level Pressure  
Sea Level Pressure 30.19 in    
Wind  
Wind Speed 3 mph (ENE)    
Max Wind Speed 8 mph    
Max Gust Speed -    
Visibility 5 miles    
Events Snow    
Averages and records for this station are not official NWS values.
T = Trace of Precipitation, MM = Missing Value Source: NWS Daily Summary

Daily Weather History Graph

Daily Weather History Graph

Search for Another Location

Airport:

Trip Planner

Search our weather history database for the weather conditions in past years. The results will help you decide how hot, cold, wet, or windy it might be!

Date:

Astronomy

Dec. 16, 2012 Rise Set
Actual Time 7:16 AM EST 4:13 PM EST
Civil Twilight 6:43 AM EST 4:46 PM EST
Nautical Twilight 6:07 AM EST 5:22 PM EST
Astronomical Twilight 5:32 AM EST 5:57 PM EST
Moon 9:43 AM EST (12/16) 8:30 PM EST (12/16)
Length of Visible Light 10h 02m
Length of Day
8h 56m
Waxing Crescent, 16% of the Moon is Illuminated
Dec 16
Waxing Crescent
Dec 20
First Quarter
Dec 28
Full
Jan 4
Last Quarter
Jan 11
New

Hourly Weather History & Observations

Time (EST) Temp. Windchill Dew Point Humidity Pressure Visibility Wind Dir Wind Speed Gust Speed Precip Events Conditions
12:53 AM 23.0 °F - 14.0 °F 68% 30.32 in 10.0 mi Calm Calm - N/A   Overcast
1:53 AM 24.1 °F - 12.0 °F 60% 30.32 in 10.0 mi Calm Calm - N/A   Overcast
2:53 AM 24.1 °F - 10.9 °F 57% 30.32 in 10.0 mi Calm Calm - N/A   Overcast
3:53 AM 24.1 °F - 12.0 °F 60% 30.30 in 10.0 mi Calm Calm - N/A   Overcast
4:53 AM 25.0 °F - 12.9 °F 60% 30.30 in 10.0 mi Calm Calm - N/A   Overcast
5:53 AM 25.0 °F - 15.1 °F 66% 30.29 in 8.0 mi Calm Calm - N/A   Overcast
6:53 AM 26.1 °F - 16.0 °F 66% 30.28 in 10.0 mi Calm Calm - N/A   Overcast
7:53 AM 27.0 °F - 14.0 °F 58% 30.28 in 10.0 mi Calm Calm - N/A   Overcast
8:53 AM 27.0 °F 23.0 °F 14.0 °F 58% 30.30 in 10.0 mi ESE 3.5 mph - N/A   Overcast
9:53 AM 27.0 °F 19.5 °F 12.9 °F 56% 30.30 in 10.0 mi Variable 6.9 mph - N/A   Overcast
10:53 AM 26.1 °F 21.9 °F 12.9 °F 58% 30.28 in 5.0 mi ESE 3.5 mph - 0.00 in Snow Light Snow
11:53 AM 25.0 °F 20.7 °F 17.1 °F 72% 30.26 in 4.0 mi SSE 3.5 mph - 0.00 in Snow Light Snow
12:11 PM 24.8 °F 20.5 °F 17.6 °F 74% 30.20 in 2.5 mi Variable 3.5 mph - 0.00 in Snow Light Snow
12:21 PM 24.8 °F 17.9 °F 17.6 °F 74% 30.20 in 1.5 mi SE 5.8 mph - 0.00 in Snow Light Snow
12:33 PM 24.8 °F 17.9 °F 17.6 °F 74% 30.20 in 2.0 mi NE 5.8 mph - 0.00 in Snow Light Snow
12:38 PM 24.8 °F 16.9 °F 17.6 °F 74% 30.20 in 1.8 mi NE 6.9 mph - 0.00 in Snow Light Snow
12:53 PM 24.1 °F 15.2 °F 19.0 °F 81% 30.23 in 1.0 mi NE 8.1 mph - 0.01 in Snow Light Snow
1:18 PM 24.8 °F 16.1 °F 19.4 °F 80% 30.18 in 2.5 mi NE 8.1 mph - 0.00 in Snow Light Snow
1:28 PM 24.8 °F 16.9 °F 19.4 °F 80% 30.18 in 3.0 mi NE 6.9 mph - 0.00 in Snow Light Snow
1:50 PM 24.8 °F 16.1 °F 19.4 °F 80% 30.17 in 2.5 mi NE 8.1 mph - 0.00 in Snow Light Snow
1:53 PM 24.1 °F 16.0 °F 19.0 °F 81% 30.21 in 2.0 mi NE 6.9 mph - 0.00 in Snow Light Snow
2:09 PM 24.8 °F 16.9 °F 17.6 °F 74% 30.17 in 2.0 mi NE 6.9 mph - 0.01 in Snow Light Snow
2:53 PM 24.1 °F 17.0 °F 19.0 °F 81% 30.20 in 2.0 mi NE 5.8 mph - 0.01 in Snow Light Snow
3:45 PM 24.8 °F 17.9 °F 19.4 °F 80% 30.15 in 1.5 mi NE 5.8 mph - 0.01 in Snow Light Snow
3:53 PM 24.1 °F 18.2 °F 19.0 °F 81% 30.19 in 1.2 mi NE 4.6 mph - 0.01 in Snow Light Snow
4:32 PM 24.8 °F 19.1 °F 19.4 °F 80% 30.14 in 1.2 mi ENE 4.6 mph - 0.01 in Snow Light Snow
4:47 PM 24.8 °F 19.1 °F 19.4 °F 80% 30.14 in 2.0 mi ENE 4.6 mph - 0.01 in Snow Light Snow
4:53 PM 24.1 °F 18.2 °F 19.0 °F 81% 30.17 in 2.5 mi ENE 4.6 mph - 0.01 in Snow Light Snow
5:15 PM 24.8 °F 20.5 °F 19.4 °F 80% 30.13 in 1.8 mi ENE 3.5 mph - 0.01 in Snow Light Snow
5:26 PM 24.8 °F 20.5 °F 19.4 °F 80% 30.13 in 2.0 mi NE 3.5 mph - 0.02 in Snow Light Snow
5:42 PM 24.8 °F - 19.4 °F 80% 30.14 in 3.0 mi Calm Calm - 0.02 in Snow Light Snow
5:53 PM 24.1 °F 19.7 °F 19.9 °F 84% 30.17 in 3.0 mi NNE 3.5 mph - 0.02 in Snow Light Snow
6:03 PM 24.8 °F - 19.4 °F 80% 30.14 in 2.0 mi Calm Calm - 0.00 in Snow Light Snow
6:26 PM 24.8 °F 20.5 °F 19.4 °F 80% 30.13 in 1.5 mi NE 3.5 mph - 0.00 in Snow Light Snow
6:43 PM 24.8 °F 19.1 °F 19.4 °F 80% 30.13 in 1.5 mi NE 4.6 mph - 0.01 in Snow Light Snow
6:53 PM 24.1 °F 19.7 °F 19.9 °F 84% 30.16 in 2.5 mi NE 3.5 mph - 0.01 in Snow Light Snow
7:23 PM 24.8 °F 20.5 °F 19.4 °F 80% 30.12 in 3.0 mi NE 3.5 mph - 0.00 in   Overcast
7:53 PM 25.0 °F - 19.9 °F 81% 30.17 in 7.0 mi Calm Calm - 0.00 in   Overcast
8:53 PM 25.0 °F - 21.0 °F 85% 30.15 in 6.0 mi Calm Calm - 0.00 in   Overcast
9:09 PM 24.8 °F 19.1 °F 19.4 °F 80% 30.12 in 3.0 mi ENE 4.6 mph - 0.00 in Snow Light Snow
9:16 PM 24.8 °F 20.5 °F 21.2 °F 86% 30.12 in 2.5 mi NE 3.5 mph - 0.01 in Snow Light Snow
9:23 PM 24.8 °F 20.5 °F 21.2 °F 86% 30.11 in 4.0 mi NE 3.5 mph - 0.01 in   Overcast
9:53 PM 26.1 °F - 21.0 °F 81% 30.14 in 8.0 mi Calm Calm - 0.01 in   Overcast
10:21 PM 26.6 °F 21.2 °F 21.2 °F 80% 30.11 in 7.0 mi SSE 4.6 mph - 0.00 in   Overcast
10:53 PM 27.0 °F 19.5 °F 21.0 °F 78% 30.14 in 5.0 mi SSE 6.9 mph - 0.01 in Snow Light Snow
11:04 PM 26.6 °F 22.6 °F 21.2 °F 80% 30.11 in 4.0 mi SSE 3.5 mph - 0.00 in   Haze
11:12 PM 26.6 °F 22.6 °F 21.2 °F 80% 30.11 in 5.0 mi SSE 3.5 mph - 0.00 in   Haze
11:45 PM 26.6 °F 21.2 °F 21.2 °F 80% 30.09 in 8.0 mi Variable 4.6 mph - 0.00 in   Overcast
11:53 PM 27.0 °F 23.0 °F 21.0 °F 78% 30.13 in 10.0 mi SSE 3.5 mph - 0.00 in   Overcast